Terminal Aerodrome Forecast
Issued by NWS Northern Indiana

Home | Current Version | Previous Version | Graphics & Text | Print | Product List | Glossary On
Versions: 1 2 3 4 5 6 7 8 9 10 11 12 13 14 15 16 17 18
000
FTUS43 KIWX 100537
TAFFWA
TAF
KFWA 100537Z 1006/1106 27007KT P6SM OVC050
      TEMPO 1006/1007 6SM -SHSN BR BKN025
     FM101500 25010G18KT P6SM BKN080
     FM102300 27006KT P6SM BKN040=

USA.gov is the U.S. government's official web portal to all federal, state and local government web resources and services.